Weather History for Grafton, ND

Change the Weather History Date:

Friday, April 27, 2012

  Actual Average Record
Temperature  
Mean Temperature 48 °F -  
Max Temperature 55 °F 60 °F 97 °F (1952)
Min Temperature 41 °F 36 °F 15 °F (1956)
Degree Days  
Heating Degree Days 17    
Moisture  
Dew Point 25 °F    
Average Humidity 46    
Maximum Humidity 76    
Minimum Humidity 31    
Precipitation  
Precipitation 0.00 in - - ()
Sea Level Pressure  
Sea Level Pressure 30.11 in    
Wind  
Wind Speed 15 mph (ESE)    
Max Wind Speed 22 mph    
Max Gust Speed 29 mph    
Visibility 10 miles    
Events Rain    
Averages and records for this station are not official NWS values.
T = Trace of Precipitation, MM = Missing Value Source: NWS Daily Summary

Daily Weather History Graph

Daily Weather History Graph

Search for Another Location

Airport:

Trip Planner

Search our weather history database for the weather conditions in past years. The results will help you decide how hot, cold, wet, or windy it might be!

Date:

Astronomy

Apr. 27, 2012 Rise Set
Actual Time 6:16 AM CDT 8:38 PM CDT
Civil Twilight 5:41 AM CDT 9:13 PM CDT
Nautical Twilight 4:58 AM CDT 9:57 PM CDT
Astronomical Twilight 4:08 AM CDT 10:47 PM CDT
Moon 10:48 AM CDT (4/27) 1:34 AM CDT (4/27)
Length of Visible Light 15h 31m
Length of Day
14h 22m
Waxing Crescent, 33% of the Moon is Illuminated
Apr 27
Waxing Crescent
Apr 29
First Quarter
May 5
Full
May 12
Last Quarter
May 20
New

Hourly Weather History & Observations

Time (CDT) Temp. Windchill Dew Point Humidity Pressure Visibility Wind Dir Wind Speed Gust Speed Precip Events Conditions
12:15 AM 41.0 °F 33.9 °F 19.4 °F 42% 30.17 in 10.0 mi East 12.7 mph - N/A   Clear
12:35 AM 41.0 °F 33.9 °F 19.4 °F 42% 30.16 in 10.0 mi East 12.7 mph 18.4 mph N/A   Clear
12:55 AM 41.0 °F 33.5 °F 19.4 °F 42% 30.16 in 10.0 mi East 13.8 mph - N/A   Clear
1:15 AM 41.0 °F 33.5 °F 21.2 °F 45% 30.17 in 10.0 mi East 13.8 mph - N/A   Clear
1:35 AM 41.0 °F 33.5 °F 21.2 °F 45% 30.16 in 10.0 mi East 13.8 mph - N/A   Clear
1:55 AM 41.0 °F 33.1 °F 23.0 °F 49% 30.16 in 10.0 mi East 15.0 mph - N/A   Clear
2:15 AM 41.0 °F 33.5 °F 23.0 °F 49% 30.15 in 10.0 mi East 13.8 mph - N/A   Clear
2:35 AM 41.0 °F 33.9 °F 23.0 °F 49% 30.15 in 10.0 mi East 12.7 mph - N/A   Clear
2:55 AM 41.0 °F 33.5 °F 23.0 °F 49% 30.15 in 10.0 mi East 13.8 mph - N/A   Scattered Clouds
3:15 AM 41.0 °F 32.8 °F 23.0 °F 49% 30.15 in 10.0 mi ESE 16.1 mph - N/A   Partly Cloudy
3:35 AM 41.0 °F 33.1 °F 23.0 °F 49% 30.15 in 10.0 mi East 15.0 mph - N/A   Clear
3:55 AM 41.0 °F 33.1 °F 23.0 °F 49% 30.15 in 10.0 mi East 15.0 mph 18.4 mph N/A   Clear
4:15 AM 41.0 °F 33.1 °F 23.0 °F 49% 30.15 in 10.0 mi ESE 15.0 mph - N/A   Clear
4:35 AM 41.0 °F 33.1 °F 23.0 °F 49% 30.15 in 10.0 mi ESE 15.0 mph - N/A   Clear
4:55 AM 41.0 °F 33.5 °F 23.0 °F 49% 30.15 in 10.0 mi ESE 13.8 mph - N/A   Partly Cloudy
5:15 AM 41.0 °F 33.5 °F 23.0 °F 49% 30.15 in 10.0 mi ESE 13.8 mph - N/A   Clear
5:35 AM 41.0 °F 33.1 °F 23.0 °F 49% 30.14 in 10.0 mi ESE 15.0 mph 20.7 mph N/A   Clear
5:55 AM 41.0 °F 32.5 °F 24.8 °F 53% 30.13 in 10.0 mi ESE 17.3 mph 23.0 mph N/A   Clear
6:15 AM 41.0 °F 32.8 °F 24.8 °F 53% 30.13 in 10.0 mi ESE 16.1 mph 21.9 mph N/A   Mostly Cloudy
6:35 AM 41.0 °F 33.5 °F 24.8 °F 53% 30.13 in 10.0 mi ESE 13.8 mph 20.7 mph N/A   Partly Cloudy
6:55 AM 41.0 °F 33.1 °F 24.8 °F 53% 30.13 in 10.0 mi ESE 15.0 mph - N/A   Scattered Clouds
7:15 AM 41.0 °F 33.5 °F 24.8 °F 53% 30.14 in 10.0 mi ESE 13.8 mph 23.0 mph N/A   Overcast
7:35 AM 42.8 °F 35.1 °F 24.8 °F 49% 30.14 in 10.0 mi ESE 16.1 mph 21.9 mph N/A   Overcast
7:55 AM 42.8 °F 34.5 °F 24.8 °F 49% 30.14 in 10.0 mi ESE 18.4 mph 23.0 mph N/A   Mostly Cloudy
8:15 AM 44.6 °F 37.4 °F 24.8 °F 46% 30.14 in 10.0 mi ESE 16.1 mph 25.3 mph N/A   Mostly Cloudy
8:35 AM 44.6 °F 37.2 °F 24.8 °F 46% 30.14 in 10.0 mi SE 17.3 mph 26.5 mph N/A   Partly Cloudy
8:55 AM 44.6 °F 36.6 °F 24.8 °F 46% 30.14 in 10.0 mi ESE 19.6 mph 26.5 mph N/A   Clear
9:15 AM 46.4 °F 39.2 °F 24.8 °F 43% 30.14 in 10.0 mi ESE 18.4 mph 24.2 mph N/A   Clear
9:35 AM 46.4 °F 40.1 °F 24.8 °F 43% 30.14 in 10.0 mi ESE 15.0 mph 24.2 mph N/A   Clear
9:55 AM 46.4 °F 39.8 °F 24.8 °F 43% 30.13 in 10.0 mi SE 16.1 mph 25.3 mph N/A   Clear
10:15 AM 48.2 °F - 24.8 °F 40% 30.13 in 10.0 mi SE 17.3 mph 20.7 mph N/A   Clear
10:35 AM 48.2 °F - 24.8 °F 40% 30.13 in 10.0 mi SE 18.4 mph 23.0 mph N/A   Clear
10:55 AM 48.2 °F - 24.8 °F 40% 30.13 in 10.0 mi SE 17.3 mph 24.2 mph N/A   Clear
11:15 AM 48.2 °F - 24.8 °F 40% 30.13 in 8.0 mi SE 17.3 mph - N/A   Clear
11:35 AM 48.2 °F - 24.8 °F 40% 30.13 in 9.0 mi SE 17.3 mph 21.9 mph N/A   Clear
11:55 AM 50.0 °F - 24.8 °F 37% 30.13 in 10.0 mi SE 16.1 mph 25.3 mph N/A   Clear
12:15 PM 50.0 °F - 24.8 °F 37% 30.12 in 10.0 mi SE 17.3 mph 25.3 mph N/A   Clear
12:35 PM 50.0 °F - 24.8 °F 37% 30.12 in 9.0 mi SE 16.1 mph 21.9 mph N/A   Clear
12:55 PM 50.0 °F - 23.0 °F 35% 30.11 in 10.0 mi SE 16.1 mph 24.2 mph N/A   Clear
1:15 PM 50.0 °F - 24.8 °F 37% 30.12 in 10.0 mi ESE 17.3 mph 24.2 mph N/A   Partly Cloudy
1:35 PM 50.0 °F - 24.8 °F 37% 30.11 in 10.0 mi ESE 20.7 mph 24.2 mph N/A   Mostly Cloudy
1:55 PM 51.8 °F - 24.8 °F 35% 30.10 in 10.0 mi ESE 19.6 mph - N/A   Scattered Clouds
2:15 PM 51.8 °F - 24.8 °F 35% 30.09 in 10.0 mi ESE 19.6 mph 25.3 mph N/A   Scattered Clouds
2:35 PM 53.6 °F - 24.8 °F 33% 30.09 in 10.0 mi ESE 17.3 mph - N/A   Scattered Clouds
2:55 PM 53.6 °F - 24.8 °F 33% 30.09 in 10.0 mi ESE 20.7 mph 27.6 mph N/A   Partly Cloudy
3:15 PM 53.6 °F - 24.8 °F 33% 30.08 in 10.0 mi ESE 18.4 mph 24.2 mph N/A   Partly Cloudy
3:35 PM 55.4 °F - 24.8 °F 31% 30.07 in 10.0 mi ESE 18.4 mph 28.8 mph N/A   Partly Cloudy
3:55 PM 53.6 °F - 24.8 °F 33% 30.06 in 10.0 mi East 17.3 mph 24.2 mph N/A   Clear
4:15 PM 53.6 °F - 24.8 °F 33% 30.06 in 10.0 mi East 18.4 mph 28.8 mph N/A   Scattered Clouds
4:55 PM 51.8 °F - 23.0 °F 33% 30.06 in 10.0 mi East 19.6 mph 25.3 mph N/A   Mostly Cloudy
5:15 PM 50.0 °F - 23.0 °F 35% 30.06 in 10.0 mi East 21.9 mph 25.3 mph N/A   Partly Cloudy
5:35 PM 50.0 °F - 21.2 °F 32% 30.06 in 10.0 mi East 20.7 mph 26.5 mph N/A   Clear
5:55 PM 50.0 °F - 21.2 °F 32% 30.06 in 10.0 mi ESE 18.4 mph - N/A   Clear
6:15 PM 50.0 °F - 21.2 °F 32% 30.07 in 10.0 mi SSE 17.3 mph 23.0 mph N/A   Clear
6:55 PM 50.0 °F - 21.2 °F 32% 30.06 in 10.0 mi ESE 15.0 mph 23.0 mph N/A   Clear
7:15 PM 50.0 °F - 23.0 °F 35% 30.05 in 10.0 mi East 17.3 mph 24.2 mph N/A   Clear
7:35 PM 50.0 °F - 23.0 °F 35% 30.05 in 10.0 mi East 20.7 mph 27.6 mph N/A   Partly Cloudy
7:55 PM 48.2 °F - 28.4 °F 46% 30.05 in 9.0 mi ESE 13.8 mph - N/A Rain Light Rain
8:15 PM 46.4 °F 41.1 °F 32.0 °F 57% 30.05 in 7.0 mi ESE 11.5 mph - N/A Rain Light Rain
8:55 PM 44.6 °F 39.2 °F 32.0 °F 61% 30.06 in 10.0 mi ESE 10.4 mph 16.1 mph N/A Rain Light Rain
9:15 PM 44.6 °F 39.7 °F 35.6 °F 71% 30.06 in 10.0 mi ESE 9.2 mph - N/A Rain Light Rain
9:35 PM 44.6 °F 40.2 °F 33.8 °F 66% 30.06 in 10.0 mi East 8.1 mph - N/A   Clear
9:55 PM 44.6 °F 40.7 °F 35.6 °F 71% 30.06 in 10.0 mi ESE 6.9 mph - N/A   Scattered Clouds
10:15 PM 44.6 °F 41.4 °F 37.4 °F 76% 30.07 in 10.0 mi SE 5.8 mph - N/A   Mostly Cloudy
10:35 PM 44.6 °F - 35.6 °F 71% 30.07 in 10.0 mi Calm Calm - N/A   Partly Cloudy
10:55 PM 44.6 °F - 35.6 °F 71% 30.07 in 10.0 mi Calm Calm - N/A   Mostly Cloudy
11:15 PM 44.6 °F - 35.6 °F 71% 30.07 in 10.0 mi Calm Calm - N/A   Overcast
11:35 PM 44.6 °F 43.1 °F 35.6 °F 71% 30.07 in 10.0 mi ENE 3.5 mph - N/A   Overcast
11:55 PM 44.6 °F 43.1 °F 33.8 °F 66% 30.07 in 10.0 mi East 3.5 mph - N/A   Overcast